When you browse on this site, cookies collect data to enhance your experience and personalize the content and advertising you see.
Visit our Privacy Policy to learn more. By continuing to use the site, you agree to this use of cookies and data.
  • In United Kingdom
  • List of Countries
  • For 7 days
  • Water Temperature
  • Weather Map
  • Weather Widgets
  • user-avatar
    Login

    Hourly Weather Shumerlya

    Today, 26 August, Monday

    Time Temperature Precipitation Wind Pressure Humidity
    00:00 +10°C° 0 mm 3 mps 757 mmHg 93%
    01:00 +9°C° 0 mm 2 mps 757 mmHg 94%
    02:00 +9°C° 0 mm 2 mps 758 mmHg 95%
    03:00 +8°C° 0 mm 2 mps 758 mmHg 96%
    04:00 +8°C° 0 mm 2 mps 759 mmHg 95%
    05:00 +8°C° 0 mm 2 mps 759 mmHg 95%
    06:00 +8°C° 0 mm 2 mps 759 mmHg 94%
    07:00 +10°C° 0 mm 2 mps 759 mmHg 87%
    08:00 +12°C° 0 mm 2 mps 759 mmHg 80%
    09:00 +13°C° 0 mm 3 mps 759 mmHg 73%
    10:00 +14°C° 0 mm 3 mps 759 mmHg 69%
    11:00 +16°C° 0 mm 3 mps 759 mmHg 64%
    12:00 +17°C° 0 mm 3 mps 759 mmHg 60%
    13:00 +17°C° 0 mm 3 mps 758 mmHg 59%
    14:00 +17°C° 0 mm 3 mps 758 mmHg 58%
    15:00 +18°C° 0 mm 3 mps 758 mmHg 57%
    16:00 +17°C° 0 mm 3 mps 757 mmHg 63%
    17:00 +16°C° 0 mm 2 mps 757 mmHg 70%
    18:00 +15°C° 0 mm 2 mps 756 mmHg 76%
    19:00 +15°C° 0 mm 2 mps 756 mmHg 79%
    20:00 +14°C° 0 mm 2 mps 756 mmHg 81%
    21:00 +13°C° 0 mm 2 mps 755 mmHg 84%
    22:00 +12°C° 0 mm 3 mps 755 mmHg 82%
    23:00 +12°C° 0 mm 3 mps 754 mmHg 81%

    Tomorrow, 27 August, Tuesday

    Time Temperature Precipitation Wind Pressure Humidity
    00:00 +12°C° 0 mm 3 mps 753 mmHg 79%
    01:00 +13°C° 0.1 mm 3 mps 753 mmHg 82%
    02:00 +13°C° 0.1 mm 4 mps 752 mmHg 85%
    03:00 +13°C° 0.1 mm 4 mps 751 mmHg 88%
    04:00 +13°C° 1.1 mm 4 mps 750 mmHg 90%
    05:00 +13°C° 1.1 mm 4 mps 750 mmHg 92%
    06:00 +13°C° 1.1 mm 5 mps 749 mmHg 95%
    07:00 +13°C° 1.5 mm 4 mps 748 mmHg 95%
    08:00 +13°C° 1.5 mm 4 mps 748 mmHg 95%
    09:00 +13°C° 1.5 mm 4 mps 748 mmHg 96%
    10:00 +14°C° 0.5 mm 4 mps 748 mmHg 91%
    11:00 +15°C° 0.5 mm 4 mps 747 mmHg 86%
    12:00 +16°C° 0.5 mm 5 mps 747 mmHg 82%
    13:00 +17°C° 0.3 mm 5 mps 747 mmHg 79%
    14:00 +17°C° 0.3 mm 5 mps 747 mmHg 77%
    15:00 +17°C° 0.3 mm 5 mps 747 mmHg 75%
    16:00 +16°C° 0.3 mm 5 mps 747 mmHg 79%
    17:00 +14°C° 0.3 mm 5 mps 747 mmHg 83%
    18:00 +13°C° 0.3 mm 5 mps 747 mmHg 87%
    19:00 +13°C° 0 mm 5 mps 747 mmHg 88%
    20:00 +12°C° 0 mm 5 mps 747 mmHg 89%
    21:00 +12°C° 0 mm 5 mps 748 mmHg 90%
    22:00 +10°C° 0.1 mm 5 mps 748 mmHg 89%
    23:00 +10°C° 0.1 mm 5 mps 748 mmHg 88%

    Day after tomorrow, 28 August, Wednesday

    Time Temperature Precipitation Wind Pressure Humidity
    00:00 +10°C° 0.1 mm 6 mps 748 mmHg 88%
    01:00 +9°C° 0 mm 6 mps 748 mmHg 85%
    02:00 +7°C° 0 mm 6 mps 748 mmHg 83%
    03:00 +5°C° 0 mm 6 mps 748 mmHg 81%
    04:00 +5°C° 0 mm 6 mps 748 mmHg 80%
    05:00 +5°C° 0 mm 6 mps 749 mmHg 79%
    06:00 +5°C° 0 mm 6 mps 749 mmHg 78%
    07:00 +5°C° 0 mm 6 mps 749 mmHg 78%
    08:00 +7°C° 0 mm 6 mps 749 mmHg 78%
    09:00 +7°C° 0 mm 6 mps 750 mmHg 78%
    10:00 +8°C° 0 mm 7 mps 750 mmHg 78%
    11:00 +8°C° 0 mm 7 mps 750 mmHg 78%
    12:00 +9°C° 0 mm 7 mps 751 mmHg 78%
    13:00 +9°C° 0 mm 7 mps 751 mmHg 75%
    14:00 +9°C° 0 mm 7 mps 752 mmHg 72%
    15:00 +9°C° 0 mm 6 mps 752 mmHg 70%
    16:00 +9°C° 0 mm 6 mps 752 mmHg 70%
    17:00 +8°C° 0 mm 6 mps 753 mmHg 70%
    18:00 +8°C° 0 mm 6 mps 753 mmHg 70%
    19:00 +7°C° 0 mm 6 mps 754 mmHg 71%
    20:00 +6°C° 0 mm 5 mps 754 mmHg 73%
    21:00 +6°C° 0 mm 5 mps 754 mmHg 74%
    22:00 +5°C° 0 mm 5 mps 754 mmHg 75%
    23:00 +5°C° 0 mm 5 mps 754 mmHg 76%

    29 August, Thursday

    Time Temperature Precipitation Wind Pressure Humidity
    00:00 +5°C° 0 mm 5 mps 754 mmHg 76%
    01:00 +5°C° 0 mm 5 mps 754 mmHg 79%
    02:00 +5°C° 0 mm 5 mps 755 mmHg 81%
    03:00 +3°C° 0 mm 5 mps 755 mmHg 84%
    04:00 +3°C° 0 mm 5 mps 755 mmHg 84%
    05:00 +3°C° 0 mm 5 mps 755 mmHg 85%
    06:00 +4°C° 0 mm 4 mps 755 mmHg 86%
    07:00 +6°C° 0 mm 5 mps 755 mmHg 78%
    08:00 +7°C° 0 mm 5 mps 755 mmHg 71%
    09:00 +9°C° 0 mm 6 mps 755 mmHg 64%
    10:00 +10°C° 0 mm 5 mps 755 mmHg 60%
    11:00 +12°C° 0 mm 5 mps 755 mmHg 57%
    12:00 +13°C° 0 mm 5 mps 755 mmHg 54%
    13:00 +13°C° 0 mm 5 mps 755 mmHg 53%
    14:00 +14°C° 0 mm 5 mps 755 mmHg 52%
    15:00 +14°C° 0 mm 5 mps 755 mmHg 50%
    16:00 +13°C° 0 mm 4 mps 755 mmHg 57%
    17:00 +12°C° 0 mm 3 mps 755 mmHg 64%
    18:00 +12°C° 0 mm 2 mps 755 mmHg 70%
    19:00 +10°C° 0 mm 2 mps 754 mmHg 73%
    20:00 +9°C° 0 mm 1 mps 754 mmHg 77%
    21:00 +8°C° 0 mm 1 mps 754 mmHg 80%
    22:00 +7°C° 0 mm 1 mps 754 mmHg 80%
    23:00 +7°C° 0 mm 1 mps 754 mmHg 80%

    30 August, Friday

    Time Temperature Precipitation Wind Pressure Humidity
    00:00 +7°C° 0 mm 1 mps 754 mmHg 80%
    01:00 +7°C° 0.1 mm 1 mps 753 mmHg 80%
    02:00 +8°C° 0.1 mm 1 mps 753 mmHg 80%
    03:00 +8°C° 0.1 mm 1 mps 753 mmHg 81%
    04:00 +7°C° 0.2 mm 2 mps 753 mmHg 84%
    05:00 +7°C° 0.2 mm 2 mps 753 mmHg 86%
    06:00 +7°C° 0.2 mm 2 mps 753 mmHg 89%
    07:00 +8°C° 0 mm 3 mps 753 mmHg 82%
    08:00 +7°C° 0 mm 4 mps 753 mmHg 74%
    09:00 +8°C° 0 mm 4 mps 754 mmHg 67%
    10:00 +10°C° 0 mm 4 mps 754 mmHg 62%
    11:00 +11°C° 0 mm 4 mps 754 mmHg 57%
    12:00 +12°C° 0 mm 4 mps 755 mmHg 52%
    13:00 +13°C° 0 mm 4 mps 755 mmHg 53%
    14:00 +13°C° 0 mm 4 mps 754 mmHg 55%
    15:00 +13°C° 0 mm 4 mps 754 mmHg 56%
    16:00 +12°C° 0 mm 3 mps 755 mmHg 61%
    17:00 +11°C° 0 mm 3 mps 755 mmHg 67%
    18:00 +10°C° 0 mm 2 mps 755 mmHg 72%
    19:00 +9°C° 0 mm 2 mps 755 mmHg 75%
    20:00 +8°C° 0 mm 2 mps 755 mmHg 77%
    21:00 +7°C° 0 mm 2 mps 755 mmHg 79%
    22:00 +6°C° 0 mm 2 mps 755 mmHg 81%
    23:00 +6°C° 0 mm 2 mps 755 mmHg 82%

    31 August, Saturday

    Time Temperature Precipitation Wind Pressure Humidity
    00:00 +6°C° 0 mm 1 mps 755 mmHg 84%
    01:00 +4°C° 0 mm 2 mps 755 mmHg 86%
    02:00 +4°C° 0 mm 2 mps 755 mmHg 88%
    03:00 +4°C° 0 mm 2 mps 755 mmHg 89%
    04:00 +4°C° 0 mm 2 mps 755 mmHg 89%
    05:00 +4°C° 0 mm 2 mps 755 mmHg 88%
    06:00 +4°C° 0 mm 2 mps 755 mmHg 88%
    07:00 +6°C° 0 mm 2 mps 755 mmHg 80%
    08:00 +8°C° 0 mm 2 mps 755 mmHg 73%
    09:00 +10°C° 0 mm 2 mps 755 mmHg 65%
    10:00 +11°C° 0 mm 3 mps 754 mmHg 61%
    11:00 +12°C° 0 mm 3 mps 754 mmHg 58%
    12:00 +13°C° 0 mm 3 mps 754 mmHg 54%
    13:00 +13°C° 0 mm 3 mps 754 mmHg 54%
    14:00 +14°C° 0 mm 3 mps 754 mmHg 53%
    15:00 +15°C° 0 mm 2 mps 753 mmHg 53%
    16:00 +14°C° 0 mm 2 mps 753 mmHg 58%
    17:00 +13°C° 0 mm 1 mps 753 mmHg 64%
    18:00 +12°C° 0 mm 1 mps 753 mmHg 70%
    19:00 +11°C° 0 mm 1 mps 753 mmHg 74%
    20:00 +9°C° 0 mm 1 mps 753 mmHg 79%
    21:00 +8°C° 0 mm 1 mps 753 mmHg 83%
    22:00 +7°C° 0 mm 1 mps 753 mmHg 84%
    23:00 +7°C° 0 mm 1 mps 753 mmHg 85%
    Show more